#Datum;Uhrzeit;WR;Pac;DaySum;Status;WR;Pac;DaySum;Status;Pdc1;Udc;Temp;WR;Pac;DaySum;Status;Pdc1;Udc;Temp;WR;Pac;DaySum;Status;Pdc1;Udc;Temp;WR;Pac;DaySum;Status;Pdc1;Pdc2;Udc1;Udc2;Temp;WR;Pac;DaySum;Status;Pdc1;Pdc2;Udc1;Udc2;Temp;WR;Pac;DaySum;Status;Pdc1;Udc;Temp;WR;Pac;DaySum;Status;Pdc1;Udc;Temp;WR;Pac;DaySum;Status;Pdc1;Udc;Temp
15.12.17;23:55:00;1;375;10344;0;2;0;3756;0;0;0;0;3;0;2401;0;0;0;0;4;0;3177;0;0;0;0;5;0;8449;0;0;0;0;0;0;6;0;6327;0;0;0;0;0;0;7;0;5212;0;0;0;0;8;0;5132;0;0;0;0;9;0;2780;0;0;0;0
15.12.17;23:50:00;1;318;10313;0;2;0;3756;0;0;0;0;3;0;2401;0;0;0;0;4;0;3177;0;0;0;0;5;0;8449;0;0;0;0;0;0;6;0;6327;0;0;0;0;0;0;7;0;5212;0;0;0;0;8;0;5132;0;0;0;0;9;0;2780;0;0;0;0
15.12.17;23:45:00;1;757;10286;0;2;0;3756;0;0;0;0;3;0;2401;0;0;0;0;4;0;3177;0;0;0;0;5;0;8449;0;0;0;0;0;0;6;0;6327;0;0;0;0;0;0;7;0;5212;0;0;0;0;8;0;5132;0;0;0;0;9;0;2780;0;0;0;0
15.12.17;23:40:00;1;276;10233;0;2;0;3756;0;0;0;0;3;0;2401;0;0;0;0;4;0;3177;0;0;0;0;5;0;8449;0;0;0;0;0;0;6;0;6327;0;0;0;0;0;0;7;0;5212;0;0;0;0;8;0;5132;0;0;0;0;9;0;2780;0;0;0;0
15.12.17;23:35:00;1;276;10210;0;2;0;3756;0;0;0;0;3;0;2401;0;0;0;0;4;0;3177;0;0;0;0;5;0;8449;0;0;0;0;0;0;6;0;6327;0;0;0;0;0;0;7;0;5212;0;0;0;0;8;0;5132;0;0;0;0;9;0;2780;0;0;0;0
15.12.17;23:30:00;1;680;10187;0;2;0;3756;0;0;0;0;3;0;2401;0;0;0;0;4;0;3177;0;0;0;0;5;0;8449;0;0;0;0;0;0;6;0;6327;0;0;0;0;0;0;7;0;5212;0;0;0;0;8;0;5132;0;0;0;0;9;0;2780;0;0;0;0
15.12.17;23:25:00;1;277;10135;0;2;0;3756;0;0;0;0;3;0;2401;0;0;0;0;4;0;3177;0;0;0;0;5;0;8449;0;0;0;0;0;0;6;0;6327;0;0;0;0;0;0;7;0;5212;0;0;0;0;8;0;5132;0;0;0;0;9;0;2780;0;0;0;0
15.12.17;23:20:00;1;275;10112;0;2;0;3756;0;0;0;0;3;0;2401;0;0;0;0;4;0;3177;0;0;0;0;5;0;8449;0;0;0;0;0;0;6;0;6327;0;0;0;0;0;0;7;0;5212;0;0;0;0;8;0;5132;0;0;0;0;9;0;2780;0;0;0;0
15.12.17;23:15:00;1;682;10089;0;2;0;3756;0;0;0;0;3;0;2401;0;0;0;0;4;0;3177;0;0;0;0;5;0;8449;0;0;0;0;0;0;6;0;6327;0;0;0;0;0;0;7;0;5212;0;0;0;0;8;0;5132;0;0;0;0;9;0;2780;0;0;0;0
15.12.17;23:10:00;1;275;10038;0;2;0;3756;0;0;0;0;3;0;2401;0;0;0;0;4;0;3177;0;0;0;0;5;0;8449;0;0;0;0;0;0;6;0;6327;0;0;0;0;0;0;7;0;5212;0;0;0;0;8;0;5132;0;0;0;0;9;0;2780;0;0;0;0
15.12.17;23:05:00;1;276;10015;0;2;0;3756;0;0;0;0;3;0;2401;0;0;0;0;4;0;3177;0;0;0;0;5;0;8449;0;0;0;0;0;0;6;0;6327;0;0;0;0;0;0;7;0;5212;0;0;0;0;8;0;5132;0;0;0;0;9;0;2780;0;0;0;0
15.12.17;23:00:00;1;521;9991;0;2;0;3756;0;0;0;0;3;0;2401;0;0;0;0;4;0;3177;0;0;0;0;5;0;8449;0;0;0;0;0;0;6;0;6327;0;0;0;0;0;0;7;0;5212;0;0;0;0;8;0;5132;0;0;0;0;9;0;2780;0;0;0;0
15.12.17;22:55:00;1;317;9934;0;2;0;3756;0;0;0;0;3;0;2401;0;0;0;0;4;0;3177;0;0;0;0;5;0;8449;2;0;0;0;0;0;6;0;6327;2;0;0;0;0;0;7;0;5212;0;0;0;0;8;0;5132;0;0;0;0;9;0;2780;0;0;0;0
15.12.17;22:50:00;1;308;9907;0;2;0;3756;0;0;0;0;3;0;2401;0;0;0;0;4;0;3177;0;0;0;0;5;0;8449;2;0;0;0;0;0;6;0;6327;2;0;0;0;0;0;7;0;5212;0;0;0;0;8;0;5132;0;0;0;0;9;0;2780;0;0;0;0
15.12.17;22:45:00;1;474;9874;0;2;0;3756;0;0;0;0;3;0;2401;0;0;0;0;4;0;3177;0;0;0;0;5;0;8449;2;0;0;0;0;0;6;0;6327;2;0;0;0;0;0;7;0;5212;0;0;0;0;8;0;5132;0;0;0;0;9;0;2780;0;0;0;0
15.12.17;22:40:00;1;272;9831;0;2;0;3756;0;0;0;0;3;0;2401;0;0;0;0;4;0;3177;0;0;0;0;5;0;8449;2;0;0;0;0;0;6;0;6327;2;0;0;0;0;0;7;0;5212;0;0;0;0;8;0;5132;0;0;0;0;9;0;2780;0;0;0;0
15.12.17;22:35:00;1;475;9808;0;2;0;3756;0;0;0;0;3;0;2401;0;0;0;0;4;0;3177;0;0;0;0;5;0;8449;2;0;0;0;0;0;6;0;6327;2;0;0;0;0;0;7;0;5212;0;0;0;0;8;0;5132;0;0;0;0;9;0;2780;0;0;0;0
15.12.17;22:30:00;1;272;9757;0;2;0;3756;0;0;0;0;3;0;2401;0;0;0;0;4;0;3177;0;0;0;0;5;0;8449;2;0;0;0;0;0;6;0;6327;2;0;0;0;0;0;7;0;5212;0;0;0;0;8;0;5132;0;0;0;0;9;0;2780;0;0;0;0
15.12.17;22:25:00;1;272;9734;0;2;0;3756;0;0;0;0;3;0;2401;0;0;0;0;4;0;3177;0;0;0;0;5;0;8449;2;0;0;0;0;0;6;0;6327;2;0;0;0;0;0;7;0;5212;0;0;0;0;8;0;5132;0;0;0;0;9;0;2780;0;0;0;0
15.12.17;22:20:00;1;688;9712;0;2;0;3756;0;0;0;0;3;0;2401;0;0;0;0;4;0;3177;0;0;0;0;5;0;8449;2;0;0;0;0;0;6;0;6327;2;0;0;0;0;0;7;0;5212;0;0;0;0;8;0;5132;0;0;0;0;9;0;2780;0;0;0;0
15.12.17;22:15:00;1;270;9662;0;2;0;3756;0;0;0;0;3;0;2401;0;0;0;0;4;0;3177;0;0;0;0;5;0;8449;2;0;0;0;0;0;6;0;6327;2;0;0;0;0;0;7;0;5212;0;0;0;0;8;0;5132;0;0;0;0;9;0;2780;0;0;0;0
15.12.17;22:10:00;1;271;9640;0;2;0;3756;0;0;0;0;3;0;2401;0;0;0;0;4;0;3177;0;0;0;0;5;0;8449;2;0;0;0;0;0;6;0;6327;2;0;0;0;0;0;7;0;5212;0;0;0;0;8;0;5132;0;0;0;0;9;0;2780;0;0;0;0
15.12.17;22:05:00;1;733;9617;0;2;0;3756;0;0;0;0;3;0;2401;0;0;0;0;4;0;3177;0;0;0;0;5;0;8449;2;0;0;0;0;0;6;0;6327;2;0;0;0;0;0;7;0;5212;0;0;0;0;8;0;5132;0;0;0;0;9;0;2780;0;0;0;0
15.12.17;22:00:00;1;383;9556;0;2;0;3756;0;0;0;0;3;0;2401;0;0;0;0;4;0;3177;0;0;0;0;5;0;8449;2;0;0;0;0;0;6;0;6327;2;0;0;0;0;0;7;0;5212;0;0;0;0;8;0;5132;0;0;0;0;9;0;2780;0;0;0;0
15.12.17;21:55:00;1;386;9524;0;2;0;3756;0;0;0;0;3;0;2401;0;0;0;0;4;0;3177;0;0;0;0;5;0;8449;2;0;0;0;0;0;6;0;6327;2;0;0;0;0;0;7;0;5212;0;0;0;0;8;0;5132;0;0;0;0;9;0;2780;0;0;0;0
15.12.17;21:50:00;1;517;9492;0;2;0;3756;0;0;0;0;3;0;2401;0;0;0;0;4;0;3177;0;0;0;0;5;0;8449;2;0;0;0;0;0;6;0;6327;2;0;0;0;0;0;7;0;5212;0;0;0;0;8;0;5132;0;0;0;0;9;0;2780;0;0;0;0
15.12.17;21:45:00;1;343;9436;0;2;0;3756;0;0;0;0;3;0;2401;0;0;0;0;4;0;3177;0;0;0;0;5;0;8449;2;0;0;0;0;0;6;0;6327;2;0;0;0;0;0;7;0;5212;0;0;0;0;8;0;5132;0;0;0;0;9;0;2780;0;0;0;0
15.12.17;21:40:00;1;343;9407;0;2;0;3756;0;0;0;0;3;0;2401;0;0;0;0;4;0;3177;0;0;0;0;5;0;8449;2;0;0;0;0;0;6;0;6327;2;0;0;0;0;0;7;0;5212;0;0;0;0;8;0;5132;0;0;0;0;9;0;2780;0;0;0;0
15.12.17;21:35:00;1;763;9378;0;2;0;3756;0;0;0;0;3;0;2401;0;0;0;0;4;0;3177;0;0;0;0;5;0;8449;2;0;0;0;0;0;6;0;6327;2;0;0;0;0;0;7;0;5212;0;0;0;0;8;0;5132;0;0;0;0;9;0;2780;0;0;0;0
15.12.17;21:30:00;1;344;9322;0;2;0;3756;0;0;0;0;3;0;2401;0;0;0;0;4;0;3177;0;0;0;0;5;0;8449;2;0;0;0;0;0;6;0;6327;2;0;0;0;0;0;7;0;5212;0;0;0;0;8;0;5132;0;0;0;0;9;0;2780;0;0;0;0
15.12.17;21:25:00;1;342;9293;0;2;0;3756;0;0;0;0;3;0;2401;0;0;0;0;4;0;3177;0;0;0;0;5;0;8449;2;0;0;0;0;0;6;0;6327;2;0;0;0;0;0;7;0;5212;0;0;0;0;8;0;5132;0;0;0;0;9;0;2780;0;0;0;0
15.12.17;21:20:00;1;542;9250;0;2;0;3756;0;0;0;0;3;0;2401;0;0;0;0;4;0;3177;0;0;0;0;5;0;8449;2;0;0;0;0;0;6;0;6327;2;0;0;0;0;0;7;0;5212;0;0;0;0;8;0;5132;0;0;0;0;9;0;2780;0;0;0;0
15.12.17;21:15:00;1;278;9209;0;2;0;3756;0;0;0;0;3;0;2401;0;0;0;0;4;0;3177;0;0;0;0;5;0;8449;2;0;0;0;0;0;6;0;6327;2;0;0;0;0;0;7;0;5212;0;0;0;0;8;0;5132;0;0;0;0;9;0;2780;0;0;0;0
15.12.17;21:10:00;1;518;9186;0;2;0;3756;0;0;0;0;3;0;2401;0;0;0;0;4;0;3177;0;0;0;0;5;0;8449;2;0;0;0;0;0;6;0;6327;2;0;0;0;0;0;7;0;5212;0;0;0;0;8;0;5132;0;0;0;0;9;0;2780;0;0;0;0
15.12.17;21:05:00;1;498;9134;0;2;0;3756;0;0;0;0;3;0;2401;0;0;0;0;4;0;3177;0;0;0;0;5;0;8449;2;0;0;0;0;0;6;0;6327;2;0;0;0;0;0;7;0;5212;0;0;0;0;8;0;5132;0;0;0;0;9;0;2780;0;0;0;0
15.12.17;21:00:00;1;323;9106;0;2;0;3756;0;0;0;0;3;0;2401;0;0;0;0;4;0;3177;0;0;0;0;5;0;8449;2;0;0;0;0;0;6;0;6327;2;0;0;0;0;0;7;0;5212;0;0;0;0;8;0;5132;0;0;0;0;9;0;2780;0;0;0;0
15.12.17;20:55:00;1;298;9079;0;2;0;3756;0;0;0;0;3;0;2401;0;0;0;0;4;0;3177;0;0;0;0;5;0;8449;2;0;0;0;0;0;6;0;6327;2;0;0;0;0;0;7;0;5212;0;0;0;0;8;0;5132;0;0;0;0;9;0;2780;0;0;0;0
15.12.17;20:50:00;1;495;9034;0;2;0;3756;0;0;0;0;3;0;2401;0;0;0;0;4;0;3177;0;0;0;0;5;0;8449;2;0;0;0;0;0;6;0;6327;2;0;0;0;0;0;7;0;5212;0;0;0;0;8;0;5132;0;0;0;0;9;0;2780;0;0;0;0
15.12.17;20:45:00;1;277;9001;0;2;0;3756;0;0;0;0;3;0;2401;0;0;0;0;4;0;3177;0;0;0;0;5;0;8449;2;0;0;0;0;0;6;0;6327;2;0;0;0;0;0;7;0;5212;0;0;0;0;8;0;5132;0;0;0;0;9;0;2780;0;0;0;0
15.12.17;20:40:00;1;306;8978;0;2;0;3756;0;0;0;0;3;0;2401;0;0;0;0;4;0;3177;0;0;0;0;5;0;8449;2;0;0;0;0;0;6;0;6327;2;0;0;0;0;0;7;0;5212;0;0;0;0;8;0;5132;0;0;0;0;9;0;2780;0;0;0;0
15.12.17;20:35:00;1;480;8934;0;2;0;3756;0;0;0;0;3;0;2401;0;0;0;0;4;0;3177;0;0;0;0;5;0;8449;2;0;0;0;0;0;6;0;6327;2;0;0;0;0;0;7;0;5212;0;0;0;0;8;0;5132;0;0;0;0;9;0;2780;0;0;0;0
15.12.17;20:30:00;1;277;8904;0;2;0;3756;0;0;0;0;3;0;2401;0;0;0;0;4;0;3177;0;0;0;0;5;0;8449;2;0;0;0;0;0;6;0;6327;2;0;0;0;0;0;7;0;5212;0;0;0;0;8;0;5132;0;0;0;0;9;0;2780;0;0;0;0
15.12.17;20:25:00;1;482;8881;0;2;0;3756;0;0;0;0;3;0;2401;0;0;0;0;4;0;3177;0;0;0;0;5;0;8449;2;0;0;0;0;0;6;0;6327;2;0;0;0;0;0;7;0;5212;0;0;0;0;8;0;5132;0;0;0;0;9;0;2780;0;0;0;0
15.12.17;20:20:00;1;637;8833;0;2;0;3756;0;0;0;0;3;0;2401;0;0;0;0;4;0;3177;0;0;0;0;5;0;8449;2;0;0;0;0;0;6;0;6327;2;0;0;0;0;0;7;0;5212;0;0;0;0;8;0;5132;0;0;0;0;9;0;2780;0;0;0;0
15.12.17;20:15:00;1;318;8806;0;2;0;3756;0;0;0;0;3;0;2401;0;0;0;0;4;0;3177;0;0;0;0;5;0;8449;2;0;0;0;0;0;6;0;6327;2;0;0;0;0;0;7;0;5212;0;0;0;0;8;0;5132;0;0;0;0;9;0;2780;0;0;0;0
15.12.17;20:10:00;1;499;8779;0;2;0;3756;0;0;0;0;3;0;2401;0;0;0;0;4;0;3177;0;0;0;0;5;0;8449;2;0;0;0;0;0;6;0;6327;2;0;0;0;0;0;7;0;5212;0;0;0;0;8;0;5132;0;0;0;0;9;0;2780;0;0;0;0
15.12.17;20:05:00;1;316;8725;0;2;0;3756;0;0;0;0;3;0;2401;0;0;0;0;4;0;3177;0;0;0;0;5;0;8449;2;0;0;0;0;0;6;0;6327;2;0;0;0;0;0;7;0;5212;0;0;0;0;8;0;5132;0;0;0;0;9;0;2780;0;0;0;0
15.12.17;20:00:00;1;277;8698;0;2;0;3756;0;0;0;0;3;0;2401;0;0;0;0;4;0;3177;0;0;0;0;5;0;8449;2;0;0;0;0;0;6;0;6327;2;0;0;0;0;0;7;0;5212;0;0;0;0;8;0;5132;0;0;0;0;9;0;2780;0;0;0;0
15.12.17;19:55:00;1;482;8675;0;2;0;3756;0;0;0;0;3;0;2401;0;0;0;0;4;0;3177;0;0;0;0;5;0;8449;2;0;0;0;0;0;6;0;6327;2;0;0;0;0;0;7;0;5212;0;0;0;0;8;0;5132;0;0;0;0;9;0;2780;0;0;0;0
15.12.17;19:50:00;1;280;8625;0;2;0;3756;0;0;0;0;3;0;2401;0;0;0;0;4;0;3177;0;0;0;0;5;0;8449;2;0;0;0;0;0;6;0;6327;2;0;0;0;0;0;7;0;5212;0;0;0;0;8;0;5132;0;0;0;0;9;0;2780;0;0;0;0
15.12.17;19:45:00;1;280;8601;0;2;0;3756;0;0;0;0;3;0;2401;0;0;0;0;4;0;3177;0;0;0;0;5;0;8449;2;0;0;0;0;0;6;0;6327;2;0;0;0;0;0;7;0;5212;0;0;0;0;8;0;5132;0;0;0;0;9;0;2780;0;0;0;0
15.12.17;19:40:00;1;499;8578;0;2;0;3756;0;0;0;0;3;0;2401;0;0;0;0;4;0;3177;0;0;0;0;5;0;8449;2;0;0;0;0;0;6;0;6327;2;0;0;0;0;0;7;0;5212;0;0;0;0;8;0;5132;0;0;0;0;9;0;2780;0;0;0;0
15.12.17;19:35:00;1;277;8526;0;2;0;3756;0;0;0;0;3;0;2401;0;0;0;0;4;0;3177;0;0;0;0;5;0;8449;2;0;0;0;0;0;6;0;6327;2;0;0;0;0;0;7;0;5212;0;0;0;0;8;0;5132;0;0;0;0;9;0;2780;0;0;0;0
15.12.17;19:30:00;1;275;8503;0;2;0;3756;0;0;0;0;3;0;2401;0;0;0;0;4;0;3177;0;0;0;0;5;0;8449;2;0;0;0;0;0;6;0;6327;2;0;0;0;0;0;7;0;5212;0;0;0;0;8;0;5132;0;0;0;0;9;0;2780;0;0;0;0
15.12.17;19:25:00;1;531;8480;0;2;0;3756;0;0;0;0;3;0;2401;0;0;0;0;4;0;3177;0;0;0;0;5;0;8449;2;0;0;0;0;0;6;0;6327;2;0;0;0;0;0;7;0;5212;0;0;0;0;8;0;5132;0;0;0;0;9;0;2780;0;0;0;0
15.12.17;19:20:00;1;371;8419;0;2;0;3756;0;0;0;0;3;0;2401;0;0;0;0;4;0;3177;0;0;0;0;5;0;8449;2;0;0;0;0;0;6;0;6327;2;0;0;0;0;0;7;0;5212;0;0;0;0;8;0;5132;0;0;0;0;9;0;2780;0;0;0;0
15.12.17;19:15:00;1;383;8388;0;2;0;3756;0;0;0;0;3;0;2401;0;0;0;0;4;0;3177;0;0;0;0;5;0;8449;2;0;0;0;0;0;6;0;6327;2;0;0;0;0;0;7;0;5212;0;0;0;0;8;0;5132;0;0;0;0;9;0;2780;0;0;0;0
15.12.17;19:10:00;1;559;8356;0;2;0;3756;0;0;0;0;3;0;2401;0;0;0;0;4;0;3177;0;0;0;0;5;0;8449;2;0;0;0;0;0;6;0;6327;2;0;0;0;0;0;7;0;5212;0;0;0;0;8;0;5132;0;0;0;0;9;0;2780;0;0;0;0
15.12.17;19:05:00;1;340;8296;0;2;0;3756;0;0;0;0;3;0;2401;0;0;0;0;4;0;3177;0;0;0;0;5;0;8449;2;0;0;0;0;0;6;0;6327;2;0;0;0;0;0;7;0;5212;0;0;0;0;8;0;5132;0;0;0;0;9;0;2780;0;0;0;0
15.12.17;19:00:00;1;340;8268;0;2;0;3756;0;0;0;0;3;0;2401;0;0;0;0;4;0;3177;0;0;0;0;5;0;8449;2;0;0;0;0;0;6;0;6327;2;0;0;0;0;0;7;0;5212;0;0;0;0;8;0;5132;0;0;0;0;9;0;2780;0;0;0;0
15.12.17;18:55:00;1;543;8239;0;2;0;3756;0;0;0;0;3;0;2401;0;0;0;0;4;0;3177;0;0;0;0;5;0;8449;2;0;0;0;0;0;6;0;6327;2;0;0;0;0;0;7;0;5212;0;0;0;0;8;0;5132;0;0;0;0;9;0;2780;0;0;0;0
15.12.17;18:50:00;1;342;8182;0;2;0;3756;0;0;0;0;3;0;2401;0;0;0;0;4;0;3177;0;0;0;0;5;0;8449;2;0;0;0;0;0;6;0;6327;2;0;0;0;0;0;7;0;5212;0;0;0;0;8;0;5132;0;0;0;0;9;0;2780;0;0;0;0
15.12.17;18:45:00;1;341;8153;0;2;0;3756;0;0;0;0;3;0;2401;0;0;0;0;4;0;3177;0;0;0;0;5;0;8449;2;0;0;0;0;0;6;0;6327;2;0;0;0;0;0;7;0;5212;0;0;0;0;8;0;5132;0;0;0;0;9;0;2780;0;0;0;0
15.12.17;18:40:00;1;828;8125;0;2;0;3756;0;0;0;0;3;0;2401;0;0;0;0;4;0;3177;0;0;0;0;5;0;8449;2;0;0;0;0;0;6;0;6327;2;0;0;0;0;0;7;0;5212;0;0;0;0;8;0;5132;0;0;0;0;9;0;2780;0;0;0;0
15.12.17;18:35:00;1;273;8068;0;2;0;3756;0;0;0;0;3;0;2401;0;0;0;0;4;0;3177;0;0;0;0;5;0;8449;2;0;0;0;0;0;6;0;6327;2;0;0;0;0;0;7;0;5212;0;0;0;0;8;0;5132;0;0;0;0;9;0;2780;0;0;0;0
15.12.17;18:30:00;1;273;8045;0;2;0;3756;0;0;0;0;3;0;2401;0;0;0;0;4;0;3177;0;0;0;0;5;0;8449;2;0;0;0;0;0;6;0;6327;2;0;0;0;0;0;7;0;5212;0;0;0;0;8;0;5132;0;0;0;0;9;0;2780;0;0;0;0
15.12.17;18:25:00;1;655;8022;0;2;0;3756;0;0;0;0;3;0;2401;0;0;0;0;4;0;3177;0;0;0;0;5;0;8449;2;0;0;0;0;0;6;0;6327;2;0;0;0;0;0;7;0;5212;0;0;0;0;8;0;5132;0;0;0;0;9;0;2780;0;0;0;0
15.12.17;18:20:00;1;316;7968;0;2;0;3756;0;0;0;0;3;0;2401;0;0;0;0;4;0;3177;0;0;0;0;5;0;8449;2;0;0;0;0;0;6;0;6327;2;0;0;0;0;0;7;0;5212;0;0;0;0;8;0;5132;0;0;0;0;9;0;2780;0;0;0;0
15.12.17;18:15:00;1;323;7942;0;2;0;3756;0;0;0;0;3;0;2401;0;0;0;0;4;0;3177;0;0;0;0;5;0;8449;2;0;0;0;0;0;6;0;6327;2;0;0;0;0;0;7;0;5212;0;0;0;0;8;0;5132;0;0;0;0;9;0;2780;0;0;0;0
15.12.17;18:10:00;1;672;7916;0;2;0;3756;0;0;0;0;3;0;2401;0;0;0;0;4;0;3177;0;0;0;0;5;0;8449;2;0;0;0;0;0;6;0;6327;2;0;0;0;0;0;7;0;5212;0;0;0;0;8;0;5132;0;0;0;0;9;0;2780;0;0;0;0
15.12.17;18:05:00;1;273;7864;0;2;0;3756;0;0;0;0;3;0;2401;0;0;0;0;4;0;3177;0;0;0;0;5;0;8449;2;0;0;0;0;0;6;0;6327;2;0;0;0;0;0;7;0;5212;0;0;0;0;8;0;5132;0;0;0;0;9;0;2780;0;0;0;0
15.12.17;18:00:00;1;274;7841;0;2;0;3756;0;0;0;0;3;0;2401;0;0;0;0;4;0;3177;0;0;0;0;5;0;8449;2;0;0;0;0;0;6;0;6327;2;0;0;0;0;0;7;0;5212;0;0;0;0;8;0;5132;0;0;0;0;9;0;2780;0;0;0;0
15.12.17;17:55:00;1;689;7818;0;2;0;3756;0;0;0;0;3;0;2401;0;0;0;0;4;0;3177;0;0;0;0;5;0;8449;2;0;0;0;0;0;6;0;6327;2;0;0;0;0;0;7;0;5212;0;0;0;0;8;0;5132;0;0;0;0;9;0;2780;0;0;0;0
15.12.17;17:50:00;1;279;7765;0;2;0;3756;0;0;0;0;3;0;2401;0;0;0;0;4;0;3177;0;0;0;0;5;0;8449;2;0;0;0;0;0;6;0;6327;2;0;0;0;0;0;7;0;5212;0;0;0;0;8;0;5132;0;0;0;0;9;0;2780;0;0;0;0
15.12.17;17:45:00;1;278;7742;0;2;0;3756;0;0;0;0;3;0;2401;0;0;0;0;4;0;3177;0;0;0;0;5;0;8449;2;0;0;0;0;0;6;0;6327;2;0;0;0;0;0;7;0;5212;0;0;0;0;8;0;5132;0;0;0;0;9;0;2780;0;0;0;0
15.12.17;17:40:00;1;637;7719;0;2;0;3756;0;0;0;0;3;0;2401;0;0;0;0;4;0;3177;0;0;0;0;5;0;8449;2;0;0;0;0;0;6;0;6327;2;0;0;0;0;0;7;0;5212;0;0;0;0;8;0;5132;0;0;0;0;9;0;2780;0;0;0;0
15.12.17;17:35:00;1;284;7667;0;2;0;3756;0;0;0;0;3;0;2401;0;0;0;0;4;0;3177;0;0;0;0;5;0;8449;2;0;0;0;0;0;6;0;6327;2;0;0;0;0;0;7;0;5212;0;0;0;0;8;0;5132;0;0;0;0;9;0;2780;0;0;0;0
15.12.17;17:30:00;1;318;7643;0;2;0;3756;0;0;0;0;3;0;2401;0;0;0;0;4;0;3177;0;0;0;0;5;0;8449;2;0;0;0;0;0;6;0;6327;2;0;0;0;0;0;7;0;5212;0;0;0;0;8;0;5132;0;0;0;0;9;0;2780;0;0;0;0
15.12.17;17:25:00;1;524;7616;0;2;0;3756;0;0;0;0;3;0;2401;0;0;0;0;4;0;3177;0;0;0;0;5;0;8449;2;0;0;0;0;0;6;0;6327;2;0;0;0;0;0;7;0;5212;0;0;0;0;8;0;5132;0;0;0;0;9;0;2780;0;0;0;0
15.12.17;17:20:00;1;307;7562;0;2;0;3756;0;0;0;0;3;0;2401;0;0;0;0;4;0;3177;0;0;0;0;5;0;8449;2;0;0;0;0;0;6;0;6327;2;0;0;0;0;0;7;0;5212;0;0;0;0;8;0;5132;0;0;0;0;9;0;2780;0;0;0;0
15.12.17;17:15:00;1;278;7536;0;2;0;3756;0;0;0;0;3;0;2401;0;0;0;0;4;0;3177;0;0;0;0;5;0;8449;2;0;0;0;0;0;6;0;6327;2;0;0;0;0;0;7;0;5212;0;0;0;0;8;0;5132;0;0;0;0;9;0;2780;0;0;0;0
15.12.17;17:10:00;1;748;7513;0;2;0;3756;0;0;0;0;3;0;2401;0;0;0;0;4;0;3177;0;0;0;0;5;0;8449;2;0;0;0;0;0;6;0;6327;2;0;0;0;0;0;7;0;5212;0;0;0;0;8;0;5132;0;0;0;0;9;0;2780;0;0;0;0
15.12.17;17:05:00;1;317;7455;0;2;0;3756;0;0;0;0;3;0;2401;0;0;0;0;4;0;3177;0;0;0;0;5;0;8449;2;0;0;0;0;0;6;0;6327;2;0;0;0;0;0;7;0;5212;0;0;0;0;8;0;5132;0;0;0;0;9;0;2780;0;0;0;0
15.12.17;17:00:00;1;277;7431;0;2;0;3756;0;0;0;0;3;0;2401;0;0;0;0;4;0;3177;0;0;0;0;5;0;8449;2;0;0;0;0;0;6;0;6327;2;0;0;0;0;0;7;0;5212;0;0;0;0;8;0;5132;0;0;0;0;9;0;2780;0;0;0;0
15.12.17;16:55:00;1;478;7408;0;2;0;3756;0;0;0;0;3;0;2401;0;0;0;0;4;0;3177;0;0;0;0;5;0;8449;2;0;0;0;0;0;6;0;6327;2;0;0;0;0;0;7;0;5212;0;0;0;0;8;0;5132;0;0;0;0;9;0;2780;0;0;0;0
15.12.17;16:50:00;1;277;7357;0;2;0;3756;0;0;0;0;3;0;2401;0;0;0;0;4;0;3177;0;0;0;0;5;0;8449;2;0;0;0;0;0;6;0;6327;2;0;0;0;0;0;7;0;5212;0;0;0;0;8;0;5132;0;0;0;0;9;0;2780;0;0;0;0
15.12.17;16:45:00;1;307;7334;0;2;0;3756;0;0;0;0;3;0;2401;0;0;0;0;4;0;3177;0;0;0;0;5;0;8449;2;0;0;0;0;0;6;0;6327;2;0;0;0;0;0;7;0;5212;0;0;0;0;8;0;5132;0;0;0;0;9;0;2780;0;0;0;0
15.12.17;16:40:00;1;693;7308;0;2;0;3756;0;0;0;0;3;0;2401;0;0;0;0;4;0;3177;0;0;0;0;5;0;8449;2;0;0;0;0;0;6;0;6327;2;0;0;0;0;0;7;0;5212;0;0;0;0;8;0;5132;0;0;0;0;9;0;2780;0;0;0;0
15.12.17;16:35:00;1;310;7250;0;2;0;3756;0;0;0;0;3;0;2401;0;0;74;4;4;0;3177;0;0;0;0;5;0;8449;2;0;0;0;0;0;6;0;6327;2;0;0;0;0;0;7;0;5212;0;0;0;0;8;0;5132;0;0;0;0;9;0;2780;0;0;0;0
15.12.17;16:30:00;1;372;7224;0;2;0;3756;0;0;228;10;3;0;2401;6;0;294;14;4;0;3177;0;0;0;0;5;0;8449;2;0;0;0;0;0;6;0;6327;2;0;0;0;0;0;7;0;5212;0;0;0;0;8;0;5132;0;0;0;0;9;0;2780;0;0;0;0
15.12.17;16:25:00;1;611;7193;0;2;0;3756;6;0;286;12;3;0;2401;6;0;315;15;4;0;3177;0;0;45;6;5;0;8449;2;0;0;0;0;0;6;0;6327;2;0;0;0;0;0;7;0;5212;0;0;0;0;8;0;5132;0;0;0;0;9;0;2780;0;0;0;0
15.12.17;16:20:00;1;452;7134;0;2;0;3756;6;0;327;12;3;0;2401;6;0;398;15;4;0;3177;1;0;105;10;5;0;8449;2;0;2;226;224;17;6;0;6327;2;0;0;0;0;3;7;0;5212;0;0;0;0;8;0;5132;0;0;0;0;9;0;2780;0;0;0;0
15.12.17;16:15:00;1;465;7096;0;2;0;3756;6;0;316;12;3;0;2401;6;0;377;15;4;0;3177;1;0;97;10;5;0;8449;26;0;1;163;162;13;6;0;6327;1;0;0;0;0;3;7;0;5212;0;0;0;0;8;0;5132;0;0;0;0;9;0;2780;0;0;0;0
15.12.17;16:10:00;1;780;7057;0;2;0;3756;6;0;347;12;3;0;2401;6;0;429;15;4;0;3177;1;0;129;10;5;0;8449;2;0;0;323;370;21;6;0;6327;23;6;3;180;464;20;7;0;5212;0;0;164;8;8;0;5132;0;0;166;8;9;0;2780;0;0;228;8
15.12.17;16:05:00;1;466;6989;0;2;0;3756;6;0;372;12;3;0;2401;6;0;466;15;4;0;3177;1;0;165;11;5;0;8449;23;0;2;405;450;22;6;0;6327;23;5;3;181;540;21;7;0;5212;6;0;316;14;8;0;5132;6;0;324;14;9;0;2780;6;0;342;10
15.12.17;16:00:00;1;469;6950;0;2;0;3756;6;0;386;13;3;1;2401;4;4;446;16;4;0;3177;1;0;190;11;5;10;8449;26;0;1;407;619;22;6;0;6327;23;7;4;191;560;21;7;0;5212;6;0;360;15;8;0;5132;6;0;367;14;9;0;2780;6;0;392;10
15.12.17;15:55:00;1;704;6911;0;2;0;3756;6;0;401;13;3;1;2400;6;5;484;16;4;0;3177;1;0;204;12;5;13;8448;26;1;3;420;662;22;6;0;6327;23;0;8;516;581;22;7;0;5212;6;1;407;15;8;0;5132;6;2;410;14;9;0;2780;6;1;441;11
15.12.17;15:50:00;1;400;6850;0;2;1;3756;6;7;407;13;3;3;2400;6;10;482;16;4;0;3177;1;0;226;12;5;82;8446;4;19;20;378;600;23;6;53;6327;4;24;33;464;439;23;7;0;5212;6;2;445;15;8;2;5132;6;1;439;15;9;3;2780;6;4;469;11
15.12.17;15:45:00;1;418;6817;0;2;0;3756;6;0;421;14;3;0;2400;6;6;511;16;4;0;3177;3;0;200;12;5;96;8439;4;28;27;378;600;23;6;59;6322;4;16;21;464;439;23;7;0;5212;6;4;447;15;8;2;5132;6;4;454;15;9;0;2779;6;0;526;11
15.12.17;15:40:00;1;915;6781;0;2;10;3756;3;20;403;14;3;2;2400;6;6;515;16;4;0;3177;3;0;200;12;5;117;8431;4;44;37;378;600;23;6;78;6317;4;35;42;464;439;23;7;2;5212;6;4;469;16;8;0;5132;6;4;473;15;9;0;2779;4;8;497;11
15.12.17;15:35:00;1;444;6713;0;2;47;3755;4;79;363;14;3;0;2400;6;0;555;16;4;8;3177;3;8;199;12;5;148;8421;4;54;51;378;600;23;6;97;6310;4;43;53;464;439;23;7;0;5212;6;0;506;16;8;0;5132;6;0;508;15;9;3;2779;6;6;531;12
15.12.17;15:30:00;1;418;6676;0;2;63;3751;4;97;371;15;3;10;2400;4;21;512;17;4;26;3176;3;28;198;13;5;182;8408;4;77;67;378;600;23;6;119;6302;4;59;80;464;439;23;7;41;5212;4;73;381;16;8;37;5132;4;72;391;16;9;7;2779;6;16;519;12
15.12.17;15:25:00;1;682;6641;0;2;72;3746;4;106;369;15;3;7;2399;3;14;538;17;4;27;3174;3;29;198;13;5;202;8393;4;96;78;378;600;23;6;132;6292;4;64;78;464;440;23;7;55;5208;4;87;415;16;8;49;5128;4;89;435;16;9;5;2778;6;10;546;12
15.12.17;15:20:00;1;399;6577;0;2;80;3740;4;113;364;15;3;12;2398;6;23;517;17;4;39;3172;3;40;198;13;5;214;8376;4;101;84;378;600;23;6;139;6281;4;67;74;463;439;23;7;65;5204;4;101;410;16;8;66;5124;4;100;413;16;9;12;2778;6;19;526;12
15.12.17;15:15:00;1;401;6544;0;2;100;3733;4;135;374;15;3;36;2397;6;58;506;17;4;56;3168;3;58;198;13;5;261;8358;4;120;105;378;600;23;6;170;6269;4;79;96;464;439;23;7;75;5198;4;117;452;17;8;80;5119;4;120;414;16;9;0;2777;6;0;585;12
15.12.17;15:10:00;1;636;6511;0;2;152;3725;4;189;379;16;3;84;2394;4;124;495;18;4;104;3163;3;108;224;13;5;342;8336;4;169;142;378;600;23;6;223;6255;4;113;125;464;439;23;7;142;5192;4;175;448;17;8;138;5112;4;179;452;16;9;72;2777;4;105;487;13
15.12.17;15:05:00;1;402;6448;0;2;155;3712;4;193;392;16;3;90;2387;4;129;492;18;4;107;3155;5;111;225;13;5;345;8307;4;170;144;379;600;23;6;228;6236;4;132;142;464;440;23;7;143;5180;4;176;412;17;8;144;5101;4;179;427;16;9;73;2771;4;106;495;13
15.12.17;15:00:00;1;403;6414;0;2;221;3699;4;261;388;16;3;124;2380;4;167;526;18;4;166;3146;5;173;230;13;5;477;8277;4;234;198;409;632;23;6;345;6217;4;154;177;544;548;23;7;208;5168;4;243;447;17;8;203;5088;4;241;445;16;9;108;2765;4;141;513;13
15.12.17;14:55:00;1;689;6381;0;2;263;3681;4;305;394;16;3;158;2370;4;202;509;18;4;208;3132;5;217;234;14;5;554;8237;4;286;232;409;616;23;6;418;6187;4;208;220;575;560;23;7;263;5151;4;300;473;17;8;260;5072;4;308;451;17;9;138;2756;4;174;535;14
15.12.17;14:50:00;1;416;6318;0;2;310;3659;4;357;405;17;3;190;2356;4;236;501;19;4;261;3115;5;272;237;14;5;670;8191;4;324;278;414;679;24;6;494;6152;4;256;272;577;571;23;7;340;5129;4;382;480;17;8;345;5050;4;384;465;17;9;185;2745;4;220;526;14
15.12.17;14:45:00;1;447;6283;0;2;328;3633;4;373;401;17;3;200;2341;4;245;525;19;4;269;3093;5;280;237;14;5;694;8135;4;331;287;425;676;24;6;514;6111;4;257;262;588;570;23;7;370;5101;4;416;479;17;8;377;5021;4;411;452;17;9;201;2729;4;236;520;14
15.12.17;14:40:00;1;927;6246;0;2;340;3606;4;386;405;17;3;208;2324;4;253;522;19;4;279;3071;5;291;239;14;5;720;8077;4;351;302;419;683;24;6;532;6068;4;264;281;588;570;23;7;399;5070;4;448;472;18;8;400;4990;4;452;461;17;9;215;2713;4;253;512;14
15.12.17;14:35:00;1;426;6180;0;2;394;3578;4;444;407;17;3;242;2307;4;291;511;19;4;316;3048;5;329;241;14;5;816;8017;4;402;338;429;685;24;6;597;6023;4;307;319;576;576;23;7;486;5037;4;529;463;18;8;484;4957;4;525;464;17;9;255;2695;4;293;525;15
15.12.17;14:30:00;1;409;6144;0;2;474;3545;4;526;409;18;3;291;2287;4;337;515;19;4;341;3021;5;355;241;14;5;926;7949;4;459;392;423;694;24;6;681;5973;4;326;341;592;573;23;7;591;4997;4;644;484;18;8;584;4917;4;634;469;17;9;305;2674;4;350;531;15
15.12.17;14:25:00;1;729;6110;0;2;511;3506;4;562;408;18;3;315;2263;4;365;511;19;4;396;2993;5;412;240;14;5;1038;7871;4;534;442;423;663;24;6;784;5915;4;399;401;597;579;23;7;674;4948;4;733;494;18;8;671;4869;4;721;475;17;9;357;2648;4;400;533;15
15.12.17;14:20:00;1;411;6048;0;2;640;3463;4;696;414;18;3;398;2236;4;451;531;20;4;507;2960;5;528;246;15;5;1293;7784;4;670;557;434;689;24;6;971;5849;4;480;492;601;579;23;7;831;4890;4;878;491;18;8;802;4811;4;857;476;18;9;424;2618;4;475;536;15
15.12.17;14:15:00;1;444;6014;0;2;707;3410;4;766;412;18;3;447;2203;4;502;522;20;4;540;2918;5;562;247;15;5;1441;7674;4;740;620;431;687;24;6;1080;5767;4;550;555;607;577;23;7;991;4822;4;1048;485;18;8;983;4745;4;1047;483;18;9;544;2583;4;599;530;15
15.12.17;14:10:00;1;693;5977;0;2;685;3351;4;741;412;19;3;428;2166;4;483;513;20;4;535;2873;5;557;248;15;5;1436;7553;4;731;615;431;701;24;6;1077;5676;4;545;555;591;583;23;7;941;4739;4;995;480;18;8;908;4663;4;969;480;18;9;483;2538;4;534;538;15
15.12.17;14:05:00;1;457;5912;0;2;678;3294;4;737;416;19;3;428;2130;4;482;521;20;4;505;2828;5;526;249;15;5;1368;7435;4;705;587;426;694;24;6;1017;5587;4;515;517;603;579;23;7;879;4661;4;941;487;18;8;869;4588;4;925;483;18;9;463;2497;4;513;530;16
15.12.17;14:00:00;1;575;5873;0;2;576;3238;4;630;409;19;3;359;2095;4;413;506;20;4;466;2786;5;485;243;15;5;1222;7320;4;629;528;421;697;24;6;932;5500;4;467;471;589;572;23;7;819;4588;4;872;480;18;8;790;4514;4;846;481;18;9;411;2458;4;459;521;16
15.12.17;13:55:00;1;821;5822;0;2;835;3189;4;898;410;19;3;527;2064;4;585;525;20;4;587;2747;5;612;252;15;5;1649;7219;4;857;717;426;702;24;6;1254;5423;4;647;635;610;576;23;7;1096;4517;4;1156;484;18;8;1026;4447;4;1093;498;18;9;566;2423;4;625;548;16
15.12.17;13:50:00;1;991;5738;0;2;1055;3120;4;1126;409;20;3;653;2020;4;716;535;20;4;656;2698;5;683;252;15;5;1976;7078;4;1034;868;435;694;24;6;1471;5317;4;748;742;605;577;23;7;1225;4425;4;1303;508;18;8;1124;4361;4;1194;509;18;9;616;2376;4;675;557;16
15.12.17;13:45:00;1;753;5670;0;2;2050;3032;4;2161;422;19;3;1305;1966;4;1396;544;20;4;992;2644;5;1033;261;15;5;3811;6905;4;2061;1691;442;715;24;6;2776;5188;4;1439;1404;616;598;23;7;2505;4324;4;2642;514;18;8;2495;4269;4;2619;521;18;9;1258;2325;4;1344;535;17
15.12.17;13:40:00;1;824;5607;0;2;1043;2858;4;1112;418;18;3;673;1855;4;737;530;20;4;709;2560;5;738;253;15;5;2188;6580;4;1155;963;435;714;24;6;1721;4944;4;873;867;612;586;23;7;1780;4105;4;1872;516;18;8;1615;4049;4;1706;500;18;9;885;2217;4;957;545;16